DW6150 Weather Reports


time (UTC)temp
F
wind
direction
speed
knots
gust
knots
rain 1hr
in
rain 24hr
in
rain mn
in
humidity
%
barometer
mb
20260507104514 38 298 0.0 0.0 0.00 0.32 0.00 75 1011.5
20260507103045 37 298 0.0 0.0 0.00 0.32 0.00 78 1011.3
20260507101508 36 298 0.0 0.0 0.00 0.32 0.00 80 1011.0
20260507100038 37 298 0.0 0.9 0.00 0.32 0.00 81 1011.1
20260507094504 38 221 0.9 1.7 0.00 0.33 0.00 82 1011.1
20260507093028 38 6 0.0 1.7 0.00 0.33 0.00 82 1010.9
20260507091554 39 13 0.9 3.5 0.00 0.33 0.00 82 1010.9
20260507090026 39 342 1.7 3.5 0.00 0.33 0.00 81 1011.0
20260507084558 40 28 0.9 4.3 0.00 0.33 0.00 81 1011.0
20260507083032 40 18 0.9 3.5 0.00 0.33 0.00 82 1010.9
20260507081552 40 12 0.0 4.3 0.00 0.33 0.00 82 1010.9
20260507080016 41 48 0.0 2.6 0.00 0.34 0.00 82 1011.0
20260507074549 41 352 0.9 3.5 0.00 0.34 0.00 82 1010.8
20260507073012 41 10 0.0 1.7 0.00 0.34 0.00 82 1010.8
20260507071538 42 55 0.0 1.7 0.00 0.34 0.00 82 1010.6
20260507070107 42 352 0.9 2.6 0.00 0.34 0.00 81 1010.5
20260507070008 42 41 1.7 2.6 0.00 0.34 0.00 81 1010.5
20260507064543 42 55 1.7 3.5 0.00 0.34 0.00 81 1010.7
20260507063054 43 319 0.0 2.6 0.00 0.34 0.00 82 1010.7
20260507061521 43 276 2.6 6.1 0.00 0.34 0.00 82 1010.6
20260507060053 43 298 0.9 6.1 0.00 0.34 0.00 82 1010.8
20260507054511 43 282 1.7 3.5 0.00 0.34 0.00 82 1010.9
20260507053040 43 275 1.7 4.3 0.00 0.34 0.00 82 1010.7
20260507051508 43 278 1.7 5.2 0.00 0.34 0.00 82 1010.8
20260507050036 44 309 2.6 6.1 0.00 0.34 0.00 82 1010.9
20260507044622 44 256 2.6 6.1 0.00 0.34 0.00 82 1010.6
20260507043028 44 314 2.6 8.7 0.00 0.34 0.00 82 1010.6
20260507041550 44 316 2.6 4.3 0.00 0.34 0.00 78 1010.9
20260507040014 44 316 1.7 4.3 0.00 0.34 0.00 59 1010.4
20260507034543 44 290 0.9 3.5 0.00 0.34 0.34 30 1010.5
20260507033010 45 143 0.0 1.7 0.00 0.34 0.34 11 1010.5
20260507031555 45 250 0.0 0.9 0.00 0.34 0.34 10 1010.5
20260507030005 45 156 0.0 0.0 0.00 0.34 0.34 12 1010.2
20260507024539 45 176 0.0 1.7 0.00 0.34 0.34 13 1010.3
20260507023058 45 135 0.0 0.0 0.00 0.34 0.34 15 1009.9
20260507023001 45 155 0.0 0.0 0.00 0.34 0.34 15 1010.0
20260507021530 46 155 0.0 0.9 0.00 0.34 0.34 15 1010.3
20260507020100 46 335 0.0 0.0 0.00 0.34 0.34 19 1010.5
20260507014539 46 335 0.0 0.9 0.00 0.34 0.34 22 1010.8
20260507013059 46 22 0.0 2.6 0.00 0.34 0.34 20 1010.3
20260507011533 46 297 0.9 1.7 0.00 0.34 0.34 18 1010.8
20260507010051 47 274 0.9 2.6 0.01 0.34 0.34 17 1010.4
20260507004518 47 336 0.0 1.7 0.01 0.34 0.34 22 1010.1
20260507003046 47 51 0.0 3.5 0.01 0.34 0.34 27 1009.9
20260507001514 47 25 3.5 6.1 0.00 0.33 0.33 30 1009.7
20260507000037 47 32 0.0 5.2 0.00 0.33 0.33 30 1009.4
20260506234507 47 40 1.7 4.3 0.00 0.33 0.33 31 1009.0
20260506233046 47 360 0.0 5.2 0.00 0.33 0.33 34 1008.8
20260506231503 48 340 4.3 7.0 0.00 0.33 0.33 37 1008.6
20260506230024 48 334 1.7 8.7 0.00 0.33 0.33 39 1008.5
20260506224554 48 309 2.6 7.8 0.00 0.33 0.33 40 1008.4
20260506223021 48 45 1.7 6.1 0.00 0.33 0.33 35 1008.2
20260506221546 48 40 0.9 7.8 0.00 0.33 0.33 28 1008.2
20260506220013 48 16 3.5 6.1 0.00 0.33 0.33 21 1008.0
20260506214540 48 37 1.7 5.2 0.00 0.33 0.33 19 1007.7
20260506213106 48 21 3.5 7.8 0.00 0.33 0.33 21 1007.4
20260506213002 48 23 6.1 7.8 0.00 0.33 0.33 21 1007.4
20260506211531 48 46 3.5 11.3 0.00 0.33 0.33 26 1007.2
20260506210059 48 59 5.2 9.6 0.00 0.33 0.33 34 1007.1
20260506210000 48 75 5.2 9.6 0.00 0.33 0.33 35 1007.1
20260506204535 49 15 4.3 7.8 0.00 0.33 0.33 37 1007.0
20260506203052 49 30 2.6 7.0 0.00 0.33 0.33 35 1006.9
20260506201521 49 347 4.3 7.0 0.00 0.33 0.33 35 1006.6
20260506200050 49 359 2.6 7.0 0.00 0.33 0.33 30 1006.1
20260506194521 49 66 2.6 9.6 0.00 0.33 0.33 31 1006.1
20260506193045 50 27 5.2 7.8 0.00 0.33 0.33 39 1005.8
20260506191507 51 33 4.3 9.6 0.00 0.33 0.33 48 1005.7
20260506190038 54 347 5.2 9.6 0.00 0.33 0.33 51 1005.2
20260506184555 57 291 1.7 7.8 0.00 0.33 0.33 33 1005.1
20260506183030 58 298 3.5 7.8 0.00 0.33 0.33 23 1004.9
20260506181557 58 307 0.0 0.0 0.00 0.33 0.33 22 1004.9
20260506180030 58 252 0.0 0.0 0.00 0.33 0.33 14 1004.7
20260506174549 58 271 0.0 0.0 0.00 0.33 0.33 11 1004.6
20260506173031 58 335 0.0 0.0 0.00 0.33 0.33 16 1004.6
20260506171547 58 269 0.0 0.0 0.00 0.33 0.33 6 1004.5
20260506170013 57 229 0.0 0.0 0.00 0.33 0.33 3 1004.6
20260506164544 57 121 0.0 0.0 0.00 0.33 0.33 1 1004.6
20260506163011 57 243 0.0 0.0 0.00 0.33 0.33 1 1004.7
20260506161535 56 181 0.0 0.0 0.00 0.33 0.33 1 1004.8
20260506160114 56 212 0.0 0.0 0.01 0.33 0.33 1 1004.8
20260506160004 56 212 0.0 0.0 0.01 0.33 0.33 1 1004.8
20260506154532 56 210 0.0 2.6 0.01 0.33 0.33 1 1004.8
20260506153058 56 148 0.0 1.7 0.02 0.33 0.33 1 1004.6
20260506151520 55 154 0.0 0.9 0.02 0.33 0.33 1 1004.6
20260506150048 55 222 0.0 2.6 0.02 0.32 0.32 2 1004.5
20260506144518 55 217 0.0 2.6 0.03 0.32 0.32 1 1004.5
20260506143053 55 170 0.9 3.5 0.03 0.31 0.31 3 1004.8
20260506141523 55 152 0.0 3.5 0.04 0.31 0.31 5 1004.2
20260506140051 55 255 0.0 5.2 0.03 0.30 0.30 8 1004.2
20260506134513 55 298 0.9 3.5 0.03 0.28 0.28 7 1004.3
20260506133041 55 222 0.9 3.5 0.05 0.28 0.28 6 1004.4
20260506131506 55 307 0.0 2.6 0.08 0.27 0.27 3 1004.4
20260506130040 55 307 0.0 2.6 0.11 0.27 0.27 1 1004.6
20260506124601 55 133 0.0 1.7 0.12 0.26 0.26 3 1004.5
20260506123035 55 255 0.0 4.3 0.11 0.23 0.23 7 1005.3
20260506121602 55 195 0.0 0.0 0.10 0.20 0.20 11 1004.7
20260506121502 55 285 0.0 0.0 0.10 0.19 0.19 11 1004.8
20260506120021 55 293 0.0 0.0 0.09 0.16 0.16 15 1005.1
20260506114550 55 293 0.0 0.0 0.08 0.14 0.14 19 1004.7
20260506113022 55 293 0.0 0.0 0.08 0.12 0.12 24 1004.7
20260506111555 55 292 0.0 0.0 0.07 0.10 0.10 29 1004.6
20260506110022 55 293 0.0 0.0 0.05 0.07 0.07 33 1004.8